• In Hungary
  • List of Countries
  • For 7 days
  • Water Temperature
  • Satellite Maps
  • Weather Map
  • News
  • Weather Widgets
  • user-avatar
    Login

    Hourly Weather Szekesfehervar

    Today, 18 June, Monday

    Time Temperature Precipitation Wind Pressure Humidity
    00:00 +19°C° 0 mm 2 mps 749 mmHg 80%
    01:00 +19°C° 0 mm 2 mps 748 mmHg 81%
    02:00 +19°C° 0 mm 2 mps 748 mmHg 82%
    03:00 +18°C° 0 mm 2 mps 749 mmHg 83%
    04:00 +18°C° 0 mm 3 mps 749 mmHg 84%
    05:00 +19°C° 0 mm 3 mps 749 mmHg 81%
    06:00 +20°C° 0 mm 4 mps 749 mmHg 78%
    07:00 +22°C° 0 mm 4 mps 749 mmHg 72%
    08:00 +23°C° 0.1 mm 4 mps 750 mmHg 68%
    09:00 +25°C° 0.1 mm 5 mps 750 mmHg 64%
    10:00 +26°C° 0.1 mm 5 mps 750 mmHg 60%
    11:00 +27°C° 0.2 mm 6 mps 750 mmHg 58%
    12:00 +27°C° 0.2 mm 6 mps 750 mmHg 57%
    13:00 +28°C° 0.2 mm 6 mps 750 mmHg 55%
    14:00 +27°C° 0.3 mm 6 mps 750 mmHg 57%
    15:00 +27°C° 0.3 mm 6 mps 750 mmHg 59%
    16:00 +27°C° 0.3 mm 6 mps 749 mmHg 61%
    17:00 +26°C° 0.1 mm 6 mps 750 mmHg 66%
    18:00 +25°C° 0.1 mm 5 mps 750 mmHg 70%
    19:00 +23°C° 0.1 mm 5 mps 750 mmHg 74%
    20:00 +22°C° 0 mm 5 mps 750 mmHg 74%
    21:00 +22°C° 0 mm 5 mps 750 mmHg 75%
    22:00 +21°C° 0 mm 5 mps 751 mmHg 76%
    23:00 +21°C° 0 mm 5 mps 751 mmHg 77%

    Tomorrow, 19 June, Tuesday

    Time Temperature Precipitation Wind Pressure Humidity
    00:00 +20°C° 0 mm 5 mps 751 mmHg 78%
    01:00 +20°C° 0 mm 5 mps 751 mmHg 79%
    02:00 +19°C° 0 mm 5 mps 751 mmHg 79%
    03:00 +19°C° 0 mm 5 mps 751 mmHg 80%
    04:00 +19°C° 0 mm 5 mps 751 mmHg 81%
    05:00 +20°C° 0 mm 5 mps 752 mmHg 78%
    06:00 +21°C° 0 mm 5 mps 752 mmHg 76%
    07:00 +21°C° 0 mm 5 mps 752 mmHg 74%
    08:00 +23°C° 0 mm 5 mps 752 mmHg 70%
    09:00 +25°C° 0 mm 5 mps 753 mmHg 66%
    10:00 +27°C° 0 mm 5 mps 753 mmHg 62%
    11:00 +27°C° 0.5 mm 5 mps 753 mmHg 61%
    12:00 +28°C° 0.5 mm 5 mps 752 mmHg 60%
    13:00 +28°C° 0.5 mm 5 mps 752 mmHg 60%
    14:00 +28°C° 0.5 mm 5 mps 752 mmHg 60%
    15:00 +28°C° 0.5 mm 5 mps 752 mmHg 61%
    16:00 +28°C° 0.5 mm 5 mps 752 mmHg 62%
    17:00 +27°C° 0.3 mm 4 mps 752 mmHg 66%
    18:00 +26°C° 0.3 mm 4 mps 752 mmHg 71%
    19:00 +25°C° 0.3 mm 3 mps 752 mmHg 76%
    20:00 +24°C° 0.1 mm 3 mps 753 mmHg 78%
    21:00 +22°C° 0.1 mm 3 mps 753 mmHg 80%
    22:00 +21°C° 0.1 mm 3 mps 753 mmHg 82%
    23:00 +21°C° 0.3 mm 3 mps 753 mmHg 83%

    Day after tomorrow, 20 June, Wednesday

    Time Temperature Precipitation Wind Pressure Humidity
    00:00 +21°C° 0.3 mm 2 mps 753 mmHg 85%
    01:00 +20°C° 0.3 mm 2 mps 753 mmHg 86%
    02:00 +20°C° 0.2 mm 2 mps 753 mmHg 87%
    03:00 +19°C° 0.2 mm 2 mps 753 mmHg 87%
    04:00 +19°C° 0.2 mm 2 mps 753 mmHg 88%
    05:00 +20°C° 0.1 mm 2 mps 754 mmHg 84%
    06:00 +21°C° 0.1 mm 3 mps 754 mmHg 80%
    07:00 +24°C° 0.1 mm 3 mps 754 mmHg 77%
    08:00 +25°C° 0 mm 3 mps 754 mmHg 71%
    09:00 +27°C° 0 mm 3 mps 754 mmHg 65%
    10:00 +28°C° 0 mm 3 mps 754 mmHg 60%
    11:00 +29°C° 0.1 mm 3 mps 754 mmHg 57%
    12:00 +30°C° 0.1 mm 3 mps 754 mmHg 54%
    13:00 +31°C° 0.1 mm 3 mps 753 mmHg 51%
    14:00 +31°C° 0.1 mm 2 mps 753 mmHg 50%
    15:00 +31°C° 0.1 mm 2 mps 753 mmHg 49%
    16:00 +31°C° 0.1 mm 1 mps 753 mmHg 49%
    17:00 +30°C° 0 mm 1 mps 752 mmHg 53%
    18:00 +29°C° 0 mm 1 mps 752 mmHg 58%
    19:00 +26°C° 0 mm 0 mps 752 mmHg 63%
    20:00 +27°C° 0 mm 1 mps 752 mmHg 66%
    21:00 +25°C° 0 mm 1 mps 752 mmHg 69%
    22:00 +24°C° 0 mm 1 mps 753 mmHg 72%
    23:00 +24°C° 0 mm 1 mps 752 mmHg 74%

    21 June, Thursday

    Time Temperature Precipitation Wind Pressure Humidity
    00:00 +23°C° 0 mm 1 mps 752 mmHg 76%
    01:00 +23°C° 0 mm 1 mps 752 mmHg 78%
    02:00 +21°C° 0 mm 0 mps 752 mmHg 79%
    03:00 +20°C° 0 mm 0 mps 752 mmHg 80%
    04:00 +20°C° 0 mm 0 mps 752 mmHg 81%
    05:00 +24°C° 0 mm 1 mps 751 mmHg 77%
    06:00 +25°C° 0 mm 1 mps 751 mmHg 73%
    07:00 +27°C° 0 mm 1 mps 751 mmHg 68%
    08:00 +28°C° 0.1 mm 1 mps 751 mmHg 63%
    09:00 +29°C° 0.1 mm 2 mps 751 mmHg 59%
    10:00 +31°C° 0.1 mm 2 mps 750 mmHg 54%
    11:00 +31°C° 0 mm 2 mps 750 mmHg 51%
    12:00 +33°C° 0 mm 3 mps 749 mmHg 49%
    13:00 +33°C° 0 mm 3 mps 749 mmHg 47%
    14:00 +33°C° 0 mm 3 mps 748 mmHg 47%
    15:00 +33°C° 0 mm 3 mps 747 mmHg 48%
    16:00 +33°C° 0 mm 3 mps 747 mmHg 49%
    17:00 +31°C° 0 mm 3 mps 747 mmHg 55%
    18:00 +29°C° 0 mm 3 mps 746 mmHg 61%
    19:00 +28°C° 0 mm 3 mps 746 mmHg 67%
    20:00 +27°C° 0 mm 3 mps 746 mmHg 69%
    21:00 +26°C° 0 mm 3 mps 746 mmHg 72%
    22:00 +25°C° 0 mm 3 mps 746 mmHg 74%
    23:00 +24°C° 0.8 mm 3 mps 746 mmHg 77%

    22 June, Friday

    Time Temperature Precipitation Wind Pressure Humidity
    00:00 +22°C° 0.8 mm 3 mps 746 mmHg 79%
    01:00 +22°C° 0.8 mm 3 mps 746 mmHg 82%
    02:00 +21°C° 0.3 mm 4 mps 746 mmHg 83%
    03:00 +20°C° 0.3 mm 5 mps 746 mmHg 85%
    04:00 +18°C° 0.3 mm 7 mps 746 mmHg 86%
    05:00 +18°C° 0 mm 7 mps 747 mmHg 82%
    06:00 +17°C° 0 mm 8 mps 747 mmHg 78%
    07:00 +16°C° 0 mm 9 mps 748 mmHg 74%
    08:00 +15°C° 0.1 mm 9 mps 748 mmHg 71%
    09:00 +13°C° 0.1 mm 9 mps 749 mmHg 68%
    10:00 +12°C° 0.1 mm 10 mps 750 mmHg 64%
    11:00 +12°C° 0.4 mm 9 mps 750 mmHg 69%
    12:00 +11°C° 0.4 mm 8 mps 751 mmHg 74%
    13:00 +11°C° 0.4 mm 6 mps 751 mmHg 79%
    14:00 +11°C° 0.5 mm 6 mps 751 mmHg 81%
    15:00 +12°C° 0.5 mm 5 mps 752 mmHg 82%
    16:00 +12°C° 0.5 mm 4 mps 752 mmHg 84%
    17:00 +12°C° 0.1 mm 3 mps 752 mmHg 84%
    18:00 +12°C° 0.1 mm 3 mps 752 mmHg 83%
    19:00 +12°C° 0.1 mm 3 mps 752 mmHg 83%
    20:00 +12°C° 0 mm 3 mps 753 mmHg 85%
    21:00 +11°C° 0 mm 3 mps 753 mmHg 87%
    22:00 +10°C° 0 mm 4 mps 753 mmHg 90%
    23:00 +10°C° 0 mm 4 mps 753 mmHg 90%

    23 June, Saturday

    Time Temperature Precipitation Wind Pressure Humidity
    00:00 +10°C° 0 mm 3 mps 753 mmHg 91%
    01:00 +9°C° 0 mm 3 mps 753 mmHg 91%
    02:00 +9°C° 0 mm 3 mps 753 mmHg 90%
    03:00 +9°C° 0 mm 3 mps 753 mmHg 89%
    04:00 +9°C° 0 mm 3 mps 753 mmHg 88%
    05:00 +10°C° 0 mm 3 mps 753 mmHg 82%
    06:00 +12°C° 0 mm 4 mps 753 mmHg 76%
    07:00 +14°C° 0 mm 4 mps 753 mmHg 70%
    08:00 +15°C° 0 mm 4 mps 753 mmHg 65%
    09:00 +17°C° 0 mm 5 mps 753 mmHg 60%
    10:00 +19°C° 0 mm 5 mps 753 mmHg 55%
    11:00 +20°C° 0 mm 5 mps 753 mmHg 53%
    12:00 +20°C° 0 mm 5 mps 752 mmHg 51%
    13:00 +21°C° 0 mm 5 mps 752 mmHg 49%
    14:00 +21°C° 0 mm 4 mps 752 mmHg 49%
    15:00 +21°C° 0 mm 4 mps 752 mmHg 49%
    16:00 +21°C° 0 mm 4 mps 752 mmHg 49%
    17:00 +20°C° 0 mm 3 mps 752 mmHg 55%
    18:00 +19°C° 0 mm 3 mps 752 mmHg 60%
    19:00 +17°C° 0 mm 2 mps 752 mmHg 65%
    20:00 +16°C° 0 mm 2 mps 752 mmHg 68%
    21:00 +15°C° 0 mm 2 mps 753 mmHg 70%
    22:00 +14°C° 0 mm 2 mps 753 mmHg 72%
    23:00 +13°C° 0 mm 2 mps 753 mmHg 73%
    Show more